Regional Weather Roundup
Issued by NWS

Home | Current Version | Previous Version | Graphics & Text | Print | Product List | Glossary On
Versions: 1 2 3 4 5 6 7 8 9 10 11 12 13 14 15 16 17 18 19 20 21 22 23 24 25 26 27 28 29 30 31 32 33 34 35 36 37 38 39 40 41 42 43 44 45 46 47 48 49 50
710
ASUS43 KLMK 310302
RWRKY
KENTUCKY REGIONAL WEATHER ROUNDUP
NATIONAL WEATHER SERVICE LOUISVILLE KY
1100 PM EDT SAT JUL 30 2016

NOTE "FAIR" INDICATES FEW OR NO CLOUDS BELOW 12,000 FEET
WITH NO SIGNIFICANT WEATHER AND/OR OBSTRUCTIONS TO VISIBILITY.

KYZ001>023-026-027-061>063-070>075-310400-
WESTERN AND SOUTH CENTRAL KENTUCKY

CITY           SKY/WX    TMP DP  RH WIND       PRES   REMARKS
PADUCAH        PTCLDY    76  72  87 CALM      29.96R
HENDERSON      CLEAR     73  70  88 CALM      29.96R
OWENSBORO      PTCLDY    77  72  84 CALM      29.98R
HOPKINSVILLE   CLEAR     77  73  89 CALM      29.98R
BOWLING GREEN  CLEAR     75  72  90 CALM      29.99R
GLASGOW        NOT AVBL
$$

KYZ024-025-028>034-038-045-046-053-310400-
NORTH CENTRAL KENTUCKY

CITY           SKY/WX    TMP DP  RH WIND       PRES   REMARKS
LOUISVILLE/SDF PTCLDY    75  71  87 SE5       29.99R
LOUISVILLE/LOU CLEAR     75  71  87 S3        29.99R
FORT KNOX      CLEAR     71  70  95 S1        29.99R
$$

KYZ035>037-039>044-047>052-055>060-089>105-310400-
NORTHEAST KENTUCKY

CITY           SKY/WX    TMP DP  RH WIND       PRES   REMARKS
LEXINGTON      CLOUDY    74  69  85 S3        30.02R
COVINGTON      CLEAR     75  71  87 SW6       29.99R
FRANKFORT      CLEAR     73  69  87 CALM      30.00R
$$

KYZ054-064>069-076>088-106>120-310400-
SOUTHEAST KENTUCKY

CITY           SKY/WX    TMP DP  RH WIND       PRES   REMARKS
JACKSON        CLEAR     73  68  84 CALM      30.04R
LONDON         CLEAR     75  69  81 CALM      30.04R
SOMERSET       CLOUDY    73  73 100 CALM      30.03R
MIDDLESBORO    CLEAR     72  71  97 CALM      30.05R
MONTICELLO     PTCLDY   N/A N/A N/A N8        30.04R HAZE
$$





USA.gov is the U.S. government's official web portal to all federal, state and local government web resources and services.